AAL1408 KMIA-KCLT

Flight info

Callsign AAL1408
Flight time 1h 51m
Altitude 41000
Route ALTNN2 DUCEN Q87 VIYAP CHECR STOCR4
Aircraft B772/H-SDE2E3FGHIJ5LORVWXY/LB1D1

Departure

Time 2026-05-06 02:06
Airport Miami International Airport (KMIA)

Arrival

Time 2026-05-06 03:57
Airport Charlotte Douglas International Airport (KCLT)
Time Latitude Longitude Altitude Speed Heading
2026-05-06 01:05 25.79794 -80.27769 20 ft 0 kts 176°
2026-05-06 01:53 25.79800 -80.27770 20 ft 4 kts 178°
2026-05-06 01:54 25.79827 -80.27769 23 ft 4 kts 187°
2026-05-06 01:54 25.79853 -80.27763 22 ft 4 kts 198°
2026-05-06 01:54 25.79878 -80.27751 21 ft 4 kts 217°
2026-05-06 01:54 25.79894 -80.27731 25 ft 4 kts 260°
2026-05-06 01:55 25.79895 -80.27725 25 ft 0 kts 269°
2026-05-06 01:59 25.79897 -80.27735 23 ft 8 kts 283°
2026-05-06 01:59 25.79956 -80.27783 20 ft 11 kts 315°
2026-05-06 01:59 25.79970 -80.27865 18 ft 11 kts 281°
2026-05-06 02:00 25.79982 -80.27893 19 ft 5 kts 310°
2026-05-06 02:00 25.80029 -80.27912 16 ft 8 kts 336°
2026-05-06 02:00 25.80051 -80.27963 16 ft 8 kts 269°
2026-05-06 02:00 25.80048 -80.28027 16 ft 12 kts 267°
2026-05-06 02:01 25.80042 -80.28168 18 ft 22 kts 268°
2026-05-06 02:01 25.80035 -80.28338 20 ft 22 kts 268°
2026-05-06 02:01 25.80029 -80.28508 21 ft 22 kts 268°
2026-05-06 02:01 25.80018 -80.28677 27 ft 22 kts 266°
2026-05-06 02:02 25.80015 -80.28847 26 ft 22 kts 268°
2026-05-06 02:02 25.80008 -80.29016 29 ft 22 kts 268°
2026-05-06 02:02 25.79997 -80.29188 26 ft 22 kts 266°
2026-05-06 02:02 25.79993 -80.29358 22 ft 22 kts 266°
2026-05-06 02:03 25.79985 -80.29548 18 ft 27 kts 268°
2026-05-06 02:03 25.79977 -80.29759 18 ft 27 kts 267°
2026-05-06 02:03 25.79971 -80.29916 16 ft 17 kts 267°
2026-05-06 02:03 25.79968 -80.30016 16 ft 7 kts 270°
2026-05-06 02:04 25.79969 -80.30025 16 ft 4 kts 270°
2026-05-06 02:04 25.80002 -80.30113 19 ft 14 kts 322°
2026-05-06 02:04 25.80076 -80.30080 18 ft 14 kts 81°
2026-05-06 02:04 25.80076 -80.30048 17 ft 0 kts 90°
2026-05-06 02:05 25.80077 -80.29993 16 ft 33 kts 88°
2026-05-06 02:05 25.80108 -80.29298 28 ft 145 kts 86°
2026-05-06 02:06 25.80133 -80.27907 648 ft 193 kts 88°
2026-05-06 02:06 25.80184 -80.26411 2258 ft 195 kts 84°
2026-05-06 02:06 25.80346 -80.24797 3453 ft 224 kts 86°
2026-05-06 02:06 25.80477 -80.23030 4247 ft 236 kts 84°
2026-05-06 02:07 25.80683 -80.21188 4469 ft 243 kts 80°
2026-05-06 02:07 25.80910 -80.19361 4516 ft 234 kts 88°
2026-05-06 02:07 25.80970 -80.17601 5680 ft 228 kts 84°
2026-05-06 02:07 25.81257 -80.15593 5915 ft 290 kts 72°
2026-05-06 02:08 25.82284 -80.13721 6929 ft 286 kts 39°
2026-05-06 02:08 25.84057 -80.12750 7920 ft 282 kts
2026-05-06 02:08 25.86004 -80.12911 8830 ft 277 kts 344°
2026-05-06 02:08 25.87921 -80.13374 9617 ft 286 kts 347°
2026-05-06 02:09 25.89290 -80.13593 10213 ft 286 kts 347°
2026-05-06 02:09 25.91187 -80.14354 10579 ft 299 kts 322°
2026-05-06 02:09 25.92734 -80.15986 10755 ft 318 kts 315°
2026-05-06 02:09 25.94643 -80.17384 11001 ft 345 kts 335°
2026-05-06 02:10 25.97018 -80.18328 11824 ft 356 kts 340°
2026-05-06 02:10 25.99370 -80.19148 12747 ft 361 kts 344°
2026-05-06 02:10 26.01921 -80.19596 13726 ft 368 kts 353°
2026-05-06 02:10 26.04437 -80.19794 14602 ft 373 kts 354°
2026-05-06 02:11 26.07053 -80.19965 15517 ft 378 kts 354°
2026-05-06 02:11 26.09699 -80.20167 16466 ft 382 kts 353°
2026-05-06 02:11 26.12365 -80.20411 17409 ft 387 kts 352°
2026-05-06 02:11 26.15067 -80.20688 18348 ft 392 kts 352°
2026-05-06 02:12 26.17800 -80.20973 19175 ft 397 kts 352°
2026-05-06 02:12 26.20562 -80.21256 20072 ft 400 kts 352°
2026-05-06 02:12 26.23341 -80.21516 21018 ft 402 kts 352°
2026-05-06 02:12 26.26133 -80.21764 21996 ft 403 kts 351°
2026-05-06 02:13 26.28939 -80.22009 22870 ft 407 kts 351°
2026-05-06 02:13 26.31783 -80.22258 23684 ft 412 kts 351°
2026-05-06 02:13 26.34649 -80.22517 24363 ft 415 kts 350°
2026-05-06 02:13 26.37539 -80.22793 25087 ft 417 kts 350°
2026-05-06 02:14 26.40432 -80.23077 25807 ft 418 kts 350°
2026-05-06 02:14 26.43341 -80.23384 26491 ft 420 kts 349°
2026-05-06 02:14 26.46260 -80.23690 27119 ft 422 kts 350°
2026-05-06 02:14 26.49202 -80.23991 27729 ft 425 kts 350°
2026-05-06 02:15 26.52159 -80.24291 28335 ft 427 kts 350°
2026-05-06 02:15 26.55125 -80.24598 28975 ft 429 kts 350°
2026-05-06 02:15 26.58092 -80.24942 29588 ft 428 kts 348°
2026-05-06 02:15 26.61027 -80.25434 30127 ft 430 kts 346°
2026-05-06 02:16 26.63963 -80.25971 30517 ft 433 kts 346°
2026-05-06 02:16 26.66933 -80.26494 30890 ft 435 kts 347°
2026-05-06 02:16 26.69935 -80.27006 31287 ft 436 kts 346°
2026-05-06 02:16 26.72884 -80.27790 31661 ft 433 kts 338°
2026-05-06 02:17 26.75696 -80.29000 31981 ft 433 kts 334°
2026-05-06 02:17 26.78487 -80.30277 32251 ft 435 kts 335°
2026-05-06 02:17 26.81339 -80.31550 32534 ft 437 kts 335°
2026-05-06 02:17 26.84151 -80.32760 32893 ft 437 kts 336°
2026-05-06 02:18 26.86987 -80.33947 33460 ft 431 kts 336°
2026-05-06 02:18 26.89783 -80.35109 34003 ft 427 kts 335°
2026-05-06 02:18 26.92563 -80.36272 34403 ft 425 kts 335°
2026-05-06 02:18 26.95333 -80.37428 34734 ft 424 kts 335°
2026-05-06 02:19 26.98103 -80.38553 35115 ft 423 kts 336°
2026-05-06 02:19 27.00832 -80.39645 35525 ft 421 kts 336°
2026-05-06 02:19 27.03623 -80.40758 35960 ft 418 kts 336°
2026-05-06 02:19 27.06349 -80.41855 36375 ft 416 kts 335°
2026-05-06 02:20 27.11763 -80.44100 37158 ft 412 kts 334°
2026-05-06 02:20 27.14419 -80.45288 37555 ft 410 kts 333°
2026-05-06 02:20 27.16996 -80.46455 38022 ft 406 kts 333°
2026-05-06 02:21 27.19640 -80.47644 38444 ft 404 kts 333°
2026-05-06 02:21 27.22240 -80.48803 38785 ft 403 kts 333°
2026-05-06 02:21 27.24834 -80.49951 39034 ft 403 kts 333°
2026-05-06 02:21 27.27446 -80.51099 39270 ft 403 kts 333°
2026-05-06 02:22 27.30059 -80.52243 39518 ft 402 kts 333°
2026-05-06 02:22 27.32662 -80.53394 39772 ft 402 kts 333°
2026-05-06 02:22 27.35257 -80.54551 39926 ft 403 kts 333°
2026-05-06 02:22 27.37917 -80.55718 40096 ft 405 kts 333°
2026-05-06 02:23 27.40556 -80.56813 40352 ft 404 kts 334°
2026-05-06 02:23 27.43187 -80.57871 40631 ft 403 kts 334°
2026-05-06 02:23 27.45829 -80.58920 40872 ft 402 kts 334°
2026-05-06 02:23 27.48457 -80.59960 40981 ft 404 kts 334°
2026-05-06 02:24 27.51115 -80.61013 41028 ft 405 kts 334°
2026-05-06 02:24 27.56435 -80.63121 41064 ft 404 kts 334°
2026-05-06 02:25 27.61715 -80.65219 41062 ft 401 kts 334°
2026-05-06 02:25 27.66939 -80.67302 41061 ft 400 kts 334°
2026-05-06 02:26 27.72184 -80.69397 41066 ft 400 kts 334°
2026-05-06 02:26 27.77468 -80.71508 41073 ft 400 kts 334°
2026-05-06 02:27 27.82310 -80.73444 41068 ft 401 kts 334°
2026-05-06 02:27 27.87561 -80.75547 41073 ft 401 kts 334°
2026-05-06 02:28 27.92820 -80.77663 41073 ft 401 kts 334°
2026-05-06 02:28 27.98079 -80.79788 41097 ft 402 kts 334°
2026-05-06 02:28 28.00721 -80.80851 41269 ft 402 kts 334°
2026-05-06 02:29 28.03360 -80.81910 41536 ft 400 kts 334°
2026-05-06 02:29 28.05979 -80.82962 41769 ft 399 kts 334°
2026-05-06 02:29 28.08631 -80.84028 41998 ft 399 kts 333°
2026-05-06 02:30 28.13875 -80.86139 42065 ft 400 kts 333°
2026-05-06 02:30 28.19090 -80.88238 42071 ft 397 kts 333°
2026-05-06 02:31 28.24251 -80.90318 42068 ft 394 kts 333°
2026-05-06 02:31 28.29448 -80.92417 42068 ft 394 kts 333°
2026-05-06 02:32 28.34587 -80.94495 42078 ft 395 kts 333°
2026-05-06 02:32 28.39809 -80.96606 42091 ft 396 kts 333°
2026-05-06 02:33 28.44977 -80.98697 42083 ft 398 kts 333°
2026-05-06 02:33 28.46736 -80.99409 42076 ft 398 kts 333°
2026-05-06 02:34 28.55450 -81.02942 42081 ft 399 kts 333°
2026-05-06 02:34 28.60692 -81.05069 42082 ft 400 kts 333°
2026-05-06 02:35 28.65886 -81.07183 42058 ft 393 kts 333°
2026-05-06 02:35 28.70920 -81.09241 42084 ft 378 kts 332°
2026-05-06 02:36 28.75803 -81.11234 42079 ft 366 kts 332°
2026-05-06 02:36 28.80511 -81.13153 42080 ft 356 kts 331°
2026-05-06 02:37 28.85119 -81.15032 42072 ft 347 kts 331°
2026-05-06 02:37 28.89604 -81.16862 42080 ft 337 kts 331°
2026-05-06 02:38 28.93976 -81.18640 42084 ft 329 kts 331°
2026-05-06 02:38 28.98236 -81.20370 42102 ft 321 kts 330°
2026-05-06 02:39 29.02390 -81.22064 42090 ft 313 kts 330°
2026-05-06 02:39 29.06424 -81.23713 42088 ft 304 kts 329°
2026-05-06 02:40 29.10393 -81.25337 41833 ft 302 kts 329°
2026-05-06 02:40 29.12347 -81.26135 41687 ft 301 kts 330°
2026-05-06 02:40 29.14321 -81.26939 41571 ft 301 kts 329°
2026-05-06 02:40 29.16288 -81.27747 41425 ft 300 kts 329°
2026-05-06 02:41 29.18259 -81.28549 41240 ft 301 kts 329°
2026-05-06 02:41 29.20232 -81.29348 41039 ft 302 kts 329°
2026-05-06 02:41 29.22241 -81.30166 40895 ft 302 kts 329°
2026-05-06 02:41 29.24196 -81.30970 40824 ft 299 kts 329°
2026-05-06 02:42 29.26173 -81.31794 40790 ft 296 kts 329°
2026-05-06 02:42 29.28190 -81.32388 40636 ft 307 kts 341°
2026-05-06 02:42 29.30325 -81.32582 40427 ft 313 kts 342°
2026-05-06 02:43 29.34714 -81.32860 39954 ft 324 kts 345°
2026-05-06 02:43 29.37045 -81.32814 39516 ft 338 kts 345°
2026-05-06 02:43 29.39353 -81.32902 39315 ft 332 kts 342°
2026-05-06 02:43 29.41715 -81.33108 38578 ft 349 kts 343°
2026-05-06 02:44 29.43325 -81.33257 38444 ft 351 kts 343°
2026-05-06 02:44 29.46610 -81.33533 38203 ft 356 kts 344°
2026-05-06 02:44 29.48248 -81.33657 38103 ft 357 kts 344°
2026-05-06 02:45 29.53200 -81.33988 38086 ft 355 kts 344°
2026-05-06 02:45 29.58123 -81.34289 38089 ft 353 kts 344°
2026-05-06 02:46 29.63022 -81.34580 38082 ft 351 kts 344°
2026-05-06 02:46 29.67897 -81.34867 38083 ft 349 kts 344°
2026-05-06 02:47 29.72771 -81.35152 38085 ft 347 kts 344°
2026-05-06 02:47 29.77588 -81.35434 38088 ft 345 kts 344°
2026-05-06 02:48 29.82368 -81.35712 38090 ft 344 kts 344°
2026-05-06 02:48 29.87147 -81.35988 38097 ft 343 kts 344°
2026-05-06 02:49 29.91900 -81.36262 38090 ft 341 kts 344°
2026-05-06 02:49 29.96643 -81.36532 38091 ft 340 kts 344°
2026-05-06 02:50 30.01350 -81.36795 38091 ft 339 kts 344°
2026-05-06 02:50 30.06072 -81.37044 38089 ft 338 kts 344°
2026-05-06 02:51 30.10754 -81.37312 38090 ft 336 kts 343°
2026-05-06 02:51 30.15418 -81.37617 38093 ft 336 kts 343°
2026-05-06 02:52 30.20084 -81.37926 38087 ft 335 kts 343°
2026-05-06 02:52 30.24730 -81.38205 38078 ft 334 kts 343°
2026-05-06 02:53 30.29383 -81.38469 38084 ft 334 kts 343°
2026-05-06 02:53 30.34003 -81.38722 38084 ft 333 kts 343°
2026-05-06 02:54 30.38634 -81.38960 38085 ft 332 kts 343°
2026-05-06 02:54 30.43237 -81.39221 38085 ft 331 kts 342°
2026-05-06 02:55 30.47823 -81.39534 38085 ft 329 kts 342°
2026-05-06 02:55 30.52382 -81.39838 38088 ft 328 kts 342°
2026-05-06 02:56 30.56928 -81.40105 38106 ft 326 kts 342°
2026-05-06 02:56 30.61466 -81.40355 38102 ft 325 kts 342°
2026-05-06 02:57 30.65973 -81.40598 38096 ft 324 kts 342°
2026-05-06 02:57 30.70469 -81.40837 38109 ft 323 kts 342°
2026-05-06 02:58 30.74942 -81.41078 38099 ft 323 kts 349°
2026-05-06 02:58 30.77263 -81.40928 38091 ft 341 kts 352°
2026-05-06 02:58 30.79645 -81.40785 38103 ft 346 kts 349°
2026-05-06 02:59 30.84528 -81.41092 38103 ft 360 kts 345°
2026-05-06 02:59 30.89659 -81.41582 38104 ft 380 kts 346°
2026-05-06 03:00 30.95070 -81.41966 38093 ft 398 kts 347°
2026-05-06 03:00 31.00681 -81.42284 38095 ft 409 kts 347°
2026-05-06 03:01 31.06439 -81.42599 38081 ft 411 kts 348°
2026-05-06 03:01 31.12148 -81.42899 38080 ft 411 kts 348°
2026-05-06 03:02 31.17904 -81.43209 38081 ft 410 kts 347°
2026-05-06 03:02 31.23647 -81.43112 38126 ft 421 kts 356°
2026-05-06 03:03 31.29489 -81.41871 38109 ft 432 kts
2026-05-06 03:03 31.35267 -81.39638 38101 ft 438 kts
2026-05-06 03:04 31.41003 -81.37264 38095 ft 437 kts
2026-05-06 03:04 31.46722 -81.34899 38087 ft 436 kts
2026-05-06 03:05 31.52454 -81.32544 38089 ft 436 kts
2026-05-06 03:05 31.58187 -81.30198 38075 ft 436 kts
2026-05-06 03:06 31.63932 -81.27845 38078 ft 437 kts
2026-05-06 03:06 31.69714 -81.25471 38069 ft 437 kts
2026-05-06 03:07 31.75457 -81.23110 38060 ft 437 kts
2026-05-06 03:07 31.81169 -81.20760 38061 ft 437 kts
2026-05-06 03:08 31.86956 -81.18377 38050 ft 437 kts
2026-05-06 03:08 31.92707 -81.16004 38047 ft 438 kts
2026-05-06 03:09 31.97516 -81.14017 38048 ft 438 kts
2026-05-06 03:09 32.03259 -81.11641 38043 ft 438 kts
2026-05-06 03:10 32.09019 -81.09258 38052 ft 439 kts
2026-05-06 03:10 32.14838 -81.06844 38098 ft 440 kts
2026-05-06 03:11 32.20577 -81.04460 38095 ft 440 kts
2026-05-06 03:11 32.26386 -81.02043 38090 ft 440 kts
2026-05-06 03:12 32.32167 -80.99635 38096 ft 440 kts
2026-05-06 03:12 32.37952 -80.97222 38085 ft 441 kts
2026-05-06 03:13 32.43736 -80.94805 38086 ft 441 kts
2026-05-06 03:13 32.49518 -80.92385 38087 ft 440 kts
2026-05-06 03:14 32.55300 -80.89962 38099 ft 440 kts
2026-05-06 03:14 32.61072 -80.87535 38091 ft 441 kts
2026-05-06 03:15 32.66854 -80.85078 38089 ft 441 kts
2026-05-06 03:15 32.72630 -80.82590 38094 ft 445 kts 12°
2026-05-06 03:16 32.78201 -80.79207 38107 ft 456 kts 18°
2026-05-06 03:16 32.83705 -80.75437 38124 ft 457 kts 19°
2026-05-06 03:17 32.89282 -80.71692 38114 ft 456 kts 18°
2026-05-06 03:17 32.94847 -80.68047 38112 ft 456 kts 18°
2026-05-06 03:18 33.00430 -80.64417 37960 ft 458 kts 18°
2026-05-06 03:18 33.03256 -80.62586 37227 ft 464 kts 18°
2026-05-06 03:18 33.06116 -80.60722 36589 ft 461 kts 18°
2026-05-06 03:18 33.08941 -80.58873 36122 ft 455 kts 18°
2026-05-06 03:19 33.11704 -80.57060 35642 ft 450 kts 18°
2026-05-06 03:19 33.14469 -80.55248 35143 ft 445 kts 18°
2026-05-06 03:19 33.17184 -80.53471 34673 ft 442 kts 19°
2026-05-06 03:19 33.19869 -80.51714 34170 ft 438 kts 19°
2026-05-06 03:20 33.25175 -80.48239 33105 ft 431 kts 19°
2026-05-06 03:20 33.27846 -80.46488 32603 ft 427 kts 19°
2026-05-06 03:20 33.30417 -80.44801 32142 ft 423 kts 19°
2026-05-06 03:21 33.32984 -80.43115 31680 ft 419 kts 19°
2026-05-06 03:21 33.35539 -80.41437 31216 ft 416 kts 20°
2026-05-06 03:21 33.38072 -80.39772 30758 ft 414 kts 20°
2026-05-06 03:21 33.40587 -80.38118 30302 ft 411 kts 20°
2026-05-06 03:22 33.43058 -80.36492 29771 ft 409 kts 20°
2026-05-06 03:22 33.45528 -80.34864 29224 ft 407 kts 20°
2026-05-06 03:22 33.48002 -80.33233 28728 ft 405 kts 21°
2026-05-06 03:22 33.50467 -80.31607 28225 ft 403 kts 21°
2026-05-06 03:23 33.52927 -80.29982 27736 ft 401 kts 21°
2026-05-06 03:23 33.55361 -80.28375 27254 ft 400 kts 21°
2026-05-06 03:23 33.57772 -80.26781 26803 ft 398 kts 21°
2026-05-06 03:23 33.60221 -80.25160 26317 ft 398 kts 22°
2026-05-06 03:24 33.62651 -80.23547 25826 ft 397 kts 22°
2026-05-06 03:24 33.65048 -80.21955 25354 ft 397 kts 22°
2026-05-06 03:24 33.67465 -80.20348 24870 ft 397 kts 22°
2026-05-06 03:24 33.69885 -80.18739 24392 ft 397 kts 23°
2026-05-06 03:25 33.72294 -80.17136 24021 ft 394 kts 23°
2026-05-06 03:25 33.74665 -80.15555 23794 ft 385 kts 23°
2026-05-06 03:25 33.76993 -80.14002 23525 ft 380 kts 23°
2026-05-06 03:25 33.79299 -80.12465 23274 ft 378 kts 23°
2026-05-06 03:26 33.81606 -80.10929 23052 ft 380 kts 23°
2026-05-06 03:26 33.83933 -80.09384 22821 ft 382 kts 23°
2026-05-06 03:26 33.86264 -80.07839 22591 ft 382 kts 23°
2026-05-06 03:26 33.88552 -80.06313 22365 ft 381 kts 24°
2026-05-06 03:27 33.90894 -80.04743 22138 ft 380 kts 24°
2026-05-06 03:27 33.93172 -80.03216 21919 ft 379 kts 24°
2026-05-06 03:27 33.95502 -80.01655 21689 ft 378 kts 24°
2026-05-06 03:27 33.97774 -80.00179 21464 ft 369 kts 19°
2026-05-06 03:28 34.00213 -79.99470 21252 ft 357 kts 356°
2026-05-06 03:28 34.02645 -79.99798 21058 ft 350 kts 341°
2026-05-06 03:28 34.04891 -80.00848 20861 ft 345 kts 331°
2026-05-06 03:28 34.07052 -80.02124 20660 ft 346 kts 330°
2026-05-06 03:29 34.09201 -80.03436 20460 ft 347 kts 330°
2026-05-06 03:29 34.11360 -80.04754 20249 ft 348 kts 330°
2026-05-06 03:29 34.13528 -80.06067 20037 ft 349 kts 330°
2026-05-06 03:29 34.15709 -80.07374 19837 ft 350 kts 330°
2026-05-06 03:30 34.17887 -80.08671 19633 ft 350 kts 330°
2026-05-06 03:30 34.20075 -80.09968 19426 ft 349 kts 330°
2026-05-06 03:30 34.22254 -80.11258 19227 ft 349 kts 330°
2026-05-06 03:30 34.24429 -80.12543 19012 ft 348 kts 330°
2026-05-06 03:31 34.26600 -80.13827 18817 ft 346 kts 331°
2026-05-06 03:31 34.28756 -80.15101 18615 ft 345 kts 330°
2026-05-06 03:31 34.30911 -80.16375 18416 ft 344 kts 331°
2026-05-06 03:31 34.33055 -80.17644 18193 ft 342 kts 331°
2026-05-06 03:32 34.35196 -80.18910 17978 ft 341 kts 330°
2026-05-06 03:32 34.37318 -80.20168 17738 ft 340 kts 330°
2026-05-06 03:32 34.39442 -80.21430 17540 ft 339 kts 330°
2026-05-06 03:32 34.41554 -80.22685 17327 ft 337 kts 330°
2026-05-06 03:33 34.43681 -80.23951 17124 ft 336 kts 330°
2026-05-06 03:33 34.45067 -80.24776 16987 ft 335 kts 330°
2026-05-06 03:33 34.47184 -80.26039 16782 ft 334 kts 330°
2026-05-06 03:33 34.49260 -80.27283 16583 ft 333 kts 330°
2026-05-06 03:34 34.51337 -80.28522 16398 ft 332 kts 330°
2026-05-06 03:34 34.53437 -80.29770 16201 ft 331 kts 330°
2026-05-06 03:34 34.55506 -80.31000 16004 ft 331 kts 330°
2026-05-06 03:34 34.57560 -80.32225 15806 ft 330 kts 330°
2026-05-06 03:35 34.59646 -80.33472 15607 ft 330 kts 330°
2026-05-06 03:35 34.61622 -80.34854 15428 ft 326 kts 321°
2026-05-06 03:35 34.63418 -80.36581 15231 ft 325 kts 316°
2026-05-06 03:35 34.65140 -80.38354 15034 ft 324 kts 317°
2026-05-06 03:36 34.66875 -80.40096 14845 ft 324 kts 317°
2026-05-06 03:36 34.68628 -80.41811 14637 ft 323 kts 318°
2026-05-06 03:36 34.70384 -80.43511 14469 ft 322 kts 318°
2026-05-06 03:36 34.72136 -80.45211 14272 ft 321 kts 318°
2026-05-06 03:37 34.73871 -80.46918 14094 ft 321 kts 318°
2026-05-06 03:37 34.75603 -80.48626 13894 ft 320 kts 318°
2026-05-06 03:37 34.77329 -80.50326 13691 ft 319 kts 318°
2026-05-06 03:37 34.79052 -80.52019 13495 ft 318 kts 318°
2026-05-06 03:38 34.80765 -80.53704 13296 ft 316 kts 318°
2026-05-06 03:38 34.82478 -80.55392 13108 ft 310 kts 317°
2026-05-06 03:38 34.84122 -80.57016 12920 ft 300 kts 317°
2026-05-06 03:38 34.85728 -80.58622 12733 ft 290 kts 316°
2026-05-06 03:39 34.87247 -80.60186 12563 ft 285 kts 316°
2026-05-06 03:39 34.88752 -80.61740 12425 ft 284 kts 315°
2026-05-06 03:39 34.90265 -80.63294 12254 ft 283 kts 316°
2026-05-06 03:39 34.91791 -80.64856 12076 ft 282 kts 316°
2026-05-06 03:40 34.93291 -80.66387 11918 ft 282 kts 315°
2026-05-06 03:40 34.94794 -80.67918 11757 ft 281 kts 316°
2026-05-06 03:40 34.96311 -80.69463 11582 ft 280 kts 315°
2026-05-06 03:40 34.97817 -80.71002 11421 ft 279 kts 315°
2026-05-06 03:41 34.99322 -80.72545 11251 ft 278 kts 315°
2026-05-06 03:41 35.00798 -80.74061 11087 ft 277 kts 315°
2026-05-06 03:41 35.02264 -80.75569 10950 ft 275 kts 315°
2026-05-06 03:41 35.03722 -80.77117 10815 ft 273 kts 314°
2026-05-06 03:42 35.05166 -80.78664 10686 ft 272 kts 314°
2026-05-06 03:42 35.06585 -80.80183 10573 ft 268 kts 314°
2026-05-06 03:42 35.08017 -80.81545 10414 ft 257 kts 327°
2026-05-06 03:42 35.09710 -80.82189 10323 ft 255 kts 345°
2026-05-06 03:43 35.11481 -80.82371 10207 ft 247 kts 348°
2026-05-06 03:43 35.13167 -80.82516 10092 ft 240 kts 348°
2026-05-06 03:43 35.14835 -80.82658 9949 ft 236 kts 348°
2026-05-06 03:43 35.16504 -80.82799 9852 ft 239 kts 347°
2026-05-06 03:44 35.18175 -80.82941 9734 ft 242 kts 347°
2026-05-06 03:44 35.19878 -80.83084 9527 ft 244 kts 348°
2026-05-06 03:44 35.21586 -80.83229 9265 ft 246 kts 347°
2026-05-06 03:44 35.23287 -80.83372 8979 ft 245 kts 347°
2026-05-06 03:45 35.24985 -80.83512 8698 ft 243 kts 347°
2026-05-06 03:45 35.26669 -80.83652 8413 ft 242 kts 347°
2026-05-06 03:45 35.28345 -80.83794 8136 ft 241 kts 347°
2026-05-06 03:45 35.30008 -80.83936 7864 ft 240 kts 347°
2026-05-06 03:46 35.31130 -80.84034 7673 ft 239 kts 348°
2026-05-06 03:46 35.32760 -80.84265 7422 ft 233 kts 341°
2026-05-06 03:46 35.34422 -80.84584 7134 ft 241 kts 349°
2026-05-06 03:46 35.36139 -80.84581 6910 ft 249 kts 354°
2026-05-06 03:47 35.37869 -80.84514 6659 ft 250 kts 354°
2026-05-06 03:47 35.39631 -80.84436 6389 ft 250 kts 354°
2026-05-06 03:47 35.41371 -80.84367 6113 ft 250 kts 354°
2026-05-06 03:47 35.43107 -80.84302 5832 ft 249 kts 354°
2026-05-06 03:48 35.44837 -80.84246 5552 ft 249 kts 354°
2026-05-06 03:48 35.46561 -80.84196 5272 ft 248 kts 354°
2026-05-06 03:48 35.48282 -80.84148 5005 ft 247 kts 354°
2026-05-06 03:48 35.49994 -80.84145 4744 ft 242 kts 345°
2026-05-06 03:49 35.51499 -80.84900 4463 ft 225 kts 309°
2026-05-06 03:49 35.52293 -80.86432 4192 ft 211 kts 274°
2026-05-06 03:49 35.52153 -80.88131 4091 ft 197 kts 237°
2026-05-06 03:49 35.51267 -80.89406 4007 ft 193 kts 219°
2026-05-06 03:50 35.50221 -80.90484 4017 ft 195 kts 217°
2026-05-06 03:50 35.49162 -80.91534 4011 ft 195 kts 216°
2026-05-06 03:50 35.48111 -80.92569 3977 ft 192 kts 216°
2026-05-06 03:50 35.47045 -80.93614 4001 ft 195 kts 216°
2026-05-06 03:51 35.45972 -80.94654 3995 ft 197 kts 212°
2026-05-06 03:51 35.44704 -80.95164 3970 ft 194 kts 182°
2026-05-06 03:51 35.43345 -80.95127 3976 ft 199 kts 182°
2026-05-06 03:51 35.41939 -80.95159 3993 ft 199 kts 181°
2026-05-06 03:52 35.40579 -80.95122 4040 ft 194 kts 180°
2026-05-06 03:52 35.39250 -80.95030 3966 ft 183 kts 177°
2026-05-06 03:52 35.38027 -80.94923 3768 ft 171 kts 177°
2026-05-06 03:52 35.36860 -80.94823 3534 ft 165 kts 175°
2026-05-06 03:53 35.35731 -80.94728 3326 ft 159 kts 175°
2026-05-06 03:53 35.34626 -80.94635 3107 ft 154 kts 174°
2026-05-06 03:53 35.33573 -80.94545 2920 ft 149 kts 175°
2026-05-06 03:53 35.32576 -80.94461 2731 ft 137 kts 174°
2026-05-06 03:54 35.31663 -80.94383 2558 ft 125 kts 173°
2026-05-06 03:54 35.30815 -80.94309 2403 ft 122 kts 172°
2026-05-06 03:54 35.29934 -80.94237 2260 ft 130 kts 172°
2026-05-06 03:54 35.29042 -80.94166 2082 ft 123 kts 173°
2026-05-06 03:55 35.28195 -80.94293 1914 ft 120 kts 192°
2026-05-06 03:55 35.27402 -80.94529 1798 ft 115 kts 185°
2026-05-06 03:55 35.26540 -80.94452 1647 ft 134 kts 170°
2026-05-06 03:55 35.25589 -80.94158 1419 ft 145 kts 166°
2026-05-06 03:56 35.24602 -80.93856 1171 ft 154 kts 167°
2026-05-06 03:56 35.23530 -80.93689 1036 ft 152 kts 179°
2026-05-06 03:56 35.22496 -80.93645 814 ft 146 kts 174°
2026-05-06 03:56 35.21549 -80.93549 749 ft 118 kts 173°
2026-05-06 03:57 35.20869 -80.93482 739 ft 76 kts 176°
2026-05-06 03:57 35.20553 -80.93491 739 ft 27 kts 197°
2026-05-06 03:57 35.20482 -80.93537 738 ft 5 kts 243°
2026-05-06 03:57 35.20501 -80.93574 737 ft 6 kts 339°
2026-05-06 03:58 35.20539 -80.93583 737 ft 6 kts 352°
2026-05-06 03:58 35.20578 -80.93588 737 ft 5 kts 357°
2026-05-06 03:58 35.20618 -80.93592 737 ft 6 kts 356°
2026-05-06 03:58 35.20645 -80.93594 737 ft 6 kts 357°
2026-05-06 03:59 35.20685 -80.93598 737 ft 6 kts 355°
2026-05-06 03:59 35.20725 -80.93602 737 ft 6 kts 357°
2026-05-06 03:59 35.20764 -80.93606 737 ft 5 kts 355°
2026-05-06 03:59 35.20804 -80.93609 737 ft 6 kts 356°
2026-05-06 04:00 35.20843 -80.93613 737 ft 6 kts 358°
2026-05-06 04:00 35.20882 -80.93615 737 ft 6 kts 355°
2026-05-06 04:00 35.20921 -80.93619 737 ft 5 kts 352°
2026-05-06 04:00 35.20959 -80.93624 737 ft 6 kts 356°
2026-05-06 04:01 35.20997 -80.93626 737 ft 5 kts
2026-05-06 04:01 35.21037 -80.93629 737 ft 5 kts 357°
2026-05-06 04:01 35.21076 -80.93632 737 ft 6 kts 358°
2026-05-06 04:01 35.21115 -80.93632 737 ft 6 kts
2026-05-06 04:02 35.21147 -80.93633 737 ft 0 kts 359°
2026-05-06 04:03 35.21152 -80.93633 737 ft 8 kts
2026-05-06 04:03 35.21209 -80.93626 738 ft 0 kts 21°